Location: Newark
(43.0000°N, 1.6781°W)
Time: 20:21:33
(UTC+00:00)

Courier 1B Rocket - Pass Details

Date: 21 April 2021
Orbit: 920 x 1202 km, 28.3° (Epoch: 13 May)

Event Time Altitude Azimuth Distance (km) Brightness Sun altitude
Rises 21:35:31 0° 248° (WSW) 3,749 8.3 -25.1°
Reaches altitude 10° 21:38:42 10° 234° (SW) 2,846 7.5 -25.5°
Enters shadow 21:41:58 21° 208° (SSW) 2,212 6.6 -25.8°
